Regional Weather Roundup
Issued by NWS

Home | Current Version | Previous Version | Graphics & Text | Print | Product List | Glossary On
Versions: 1 2 3 4 5 6 7 8 9 10 11 12 13 14 15 16 17 18 19 20 21 22 23 24 25 26 27 28 29 30 31 32 33 34 35 36 37 38 39 40 41 42 43 44 45 46 47 48 49 50
000
ASUS43 KMKX 210111
RWRWI

WISCONSIN REGIONAL WEATHER ROUNDUP
NATIONAL WEATHER SERVICE MILWAUKEE/SULLIVAN WI
700 PM CST SAT DEC 20 2014

NOTE: "FAIR" INDICATES FEW OR NO CLOUDS BELOW 12,000 FEET WITH NO
SIGNIFICANT WEATHER AND/OR OBSTRUCTIONS TO VISIBILITY.

WIZ001-002-006>008-014>016-023>028-210200-
NORTHWEST WISCONSIN

CITY           SKY/WX    TMP DP  RH WIND       PRES   REMARKS
SUPERIOR ARPT  CLOUDY    31  28  88 S6        30.11S WCI  26
ASHLAND        CLOUDY    31  26  82 S6        30.13F WCI  25
HAYWARD        CLOUDY    30  25  81 S9        30.12R WCI  22
SIREN          CLOUDY    31  27  83 S7        30.11S WCI  25
CUMBERLAND     CLOUDY    30  28  93 S7        30.12R FOG     WCI  23
RICE LAKE      CLOUDY    31  27  86 SE7       30.14S WCI  24
CHETEK         CLOUDY    31  28  88 SE6       30.14R WCI  25
LADYSMITH      CLOUDY    31  28  90 S6        30.15S FOG     WCI  25
EAU CLAIRE     CLOUDY    31  26  82 S7        30.15S WCI  24
MENOMONIE      CLOUDY    32  28  86 SE6       30.15S FOG     WCI  26
NEW RICHMOND   CLOUDY    31  30  94 S8        30.12F FOG     WCI  24
OSCEOLA        CLOUDY    32  31  98 SE9       30.14F WCI  24
$$

WIZ003>005-009-010-017-018-210200-
NORTH CENTRAL WISCONSIN

CITY           SKY/WX    TMP DP  RH WIND       PRES   REMARKS
MANITOWISH WTR CLOUDY    27  26  98 S7        30.12S WCI  19
ARBOR VITAE    CLOUDY    29  27  92 S7        30.13S FOG     WCI  22
WOODRUFF       CLOUDY    29  27  92 S7        30.13S FOG     WCI  22
RHINELANDER    CLOUDY    26  24  92 S5        30.15S FOG     WCI  20
EAGLE RIVER    CLOUDY    27  27  99 S5        30.13F FOG     WCI  22
LAND O LAKES   CLOUDY    28  28  99 S3        30.14S FOG
PHILLIPS       CLOUDY    28  25  91 S7        30.12F FOG     WCI  20
TOMAHAWK       CLOUDY    27  25  91 CALM      30.16S FOG
MEDFORD        CLOUDY    28  26  91 SE7       30.14F FOG     WCI  21
MERRILL        CLOUDY    28  26  91 S3        30.17S
$$

WIZ029-030-035-036-043>047-210200-
CENTRAL WISCONSIN

CITY           SKY/WX    TMP DP  RH WIND       PRES   REMARKS
WAUSAU         CLOUDY    29  24  82 SE5       30.17R WCI  24
MOSINEE        CLOUDY    28  27  93 SE7       30.19R WCI  21
MARSHFIELD     CLOUDY    30  25  81 S8        30.17R WCI  22
STEVENS POINT  CLOUDY    28  25  87 SE6       30.20S WCI  21
WAUPACA        CLOUDY    30  27  90 SE3       30.23R FOG
WAUTOMA        CLOUDY    30  28  92 CALM      30.22S
WISC RAPIDS    CLOUDY    30  24  78 S6        30.21S WCI  24
CAMP DOUGLAS   CLOUDY    30  30 100 SE6       30.20R WCI  24
$$

WIZ011>013-019>022-031-037>040-048>050-210200-
NORTHEAST WISCONSIN

CITY           SKY/WX    TMP DP  RH WIND       PRES   REMARKS
ANTIGO         CLOUDY    26  24  93 S6        30.17S WCI  19
SHAWANO        CLOUDY    31  26  83 CALM      30.23R
OCONTO         CLOUDY    28  26  94 CALM      30.23S
STURGEON BAY   MOCLDY    25  19  80 CALM      30.24S
GREEN BAY      CLOUDY    30  26  85 CALM      30.24R FOG
MANITOWOC      CLOUDY    29  26  89 W3        30.24S
APPLETON       CLOUDY    27  25  93 VRB3      30.23R FOG
CLINTONVILLE   CLOUDY    30  27  86 S3        30.23R
OSHKOSH        PTCLDY    26  23  88 S3        30.23R FOG
$$

WIZ032>034-041-042-053>061-210200-
SOUTHWEST WISCONSIN

CITY           SKY/WX    TMP DP  RH WIND       PRES   REMARKS
LA CROSSE      CLOUDY    33  28  81 SE8       30.19R HAZE    WCI  26
SPARTA         CLOUDY    31  27  84 SE3       30.20S FOG
VIROQUA        CLOUDY    29  29 100 SE6       30.17S WCI  23
BOSCOBEL       CLOUDY    33  26  75 CALM      30.21S
PRAIRIE DU CHI CLOUDY    32  27  81 SE3       30.19F HAZE
PLATTEVILLE    CLOUDY    31  27  85 CALM      30.20F
$$

WIZ056-057-062-063-064-067-068-210200-
SOUTH CENTRAL WISCONSIN

CITY           SKY/WX    TMP DP  RH WIND       PRES   REMARKS
REEDSBURG      CLOUDY    29  27  90 CALM      30.20S
BARABOO/DELLS  CLOUDY    29  26  88 S6        30.21R FOG     WCI  23
LONE ROCK      CLOUDY    34  26  72 E3        30.22S
MINERAL POINT  CLOUDY    32  28  86 SE6       30.19S WCI  26
MADISON        CLOUDY    30  26  85 S8        30.22S WCI  22
MIDDLETON      CLOUDY    31  27  84 S5        30.22S WCI  27
WATERTOWN      CLOUDY    29  28  97 CALM      30.23S FOG
MONROE         CLOUDY    30  28  93 SE7       30.21S WCI  23
JANESVILLE     CLOUDY    32  27  80 SE3       30.23S
$$

WIZ051-052-058>065-066-070>072-210200-
SOUTHEAST WISCONSIN

CITY           SKY/WX    TMP DP  RH WIND       PRES   REMARKS
MILWAUKEE      FLURRIES  31  23  72 S3        30.25S
WAUKESHA       CLOUDY    28  25  86 SE3       30.25R
MILWAUKEE/TIMM CLOUDY    30  25  80 CALM      30.26R
RACINE         CLOUDY    31  24  75 CALM      30.27R
BURLINGTON     CLOUDY    29  26  88 CALM      30.25S
KENOSHA        CLOUDY    32  25  75 SW3       30.25S
FOND DU LAC    CLOUDY    28  24  85 CALM      30.23R
SHEBOYGAN      CLOUDY    28  26  92 SW3       30.24R FOG
WEST BEND      FLURRIES  30  25  80 CALM      30.24R
JUNEAU         CLOUDY    28  26  91 SE6       30.24S FOG     WCI  22
$$

LSZ147-162-210200-
LAKE SUPERIOR

STATION/POSITION TIME  TEMP    WIND        PRES    WAVE
                       AIR SEA DIR/SP/G            HT/PER
                 (UTC) (F)     (DEG/KT/KT) (MB)    (FT/S)
DEVILS ISLAND    0100   32     180/  7/  9 1021.0F
PORT WING        0040   32     160/  4/  7 1020.0S
SAXON HARBOR     0000   33      CALM  /  5 1020.7
$$

LMZ867-665-643>646-210200-
LAKE MICHIGAN

STATION/POSITION TIME  TEMP    WIND        PRES    WAVE
                       AIR SEA DIR/SP/G            HT/PER
                 (UTC) (F)     (DEG/KT/KT) (MB)    (FT/S)
CHAMBERS ISLAND  0000   28      CALM  /  2 1024.0S
NORTHPORT PIER   0000   29      CALM  /  1 1023.7F
ALGOMA LAKESHORE 0014             CALM       N/A
KEWAUNEE LAKESHO 0000   28      CALM  /  2 1022.8F
SHEBOYGAN LAKESH 0100   31 34  240/  4/  5 1025.2R
PORT WASHINGTON  0000   31     250/  4/  5 1024.7
MILWAUKEE LAKESH 0000   32     200/  5/  6   N/A
KENOSHA   LAKESH 0100   32     210/  2/  5 1024.7R
$$

TC  - TEMPERATURE IN CELSIUS
VSB - VISIBILITY IN STATUTE MILES
WCI - WIND CHILL INDEX
HX  - HEAT INDEX



USA.gov is the U.S. government's official web portal to all federal, state and local government web resources and services.